• In Kazakhstan
  • List of Countries
  • For 7 days
  • Water Temperature
  • Satellite Maps
  • Weather Map
  • News
  • Weather Widgets
  • user-avatar
    Login

    Hourly Weather Bandipura

    Today, 22 September, Friday

    Time Temperature Precipitation Wind Pressure Humidity
    00:00 +16°C° 0 mm 1 mps 622 mmHg 56%
    01:00 +15°C° 0 mm 1 mps 622 mmHg 57%
    02:00 +15°C° 0 mm 1 mps 622 mmHg 59%
    03:00 +15°C° 0 mm 1 mps 622 mmHg 58%
    04:00 +15°C° 0 mm 1 mps 622 mmHg 58%
    05:00 +14°C° 0 mm 1 mps 622 mmHg 58%
    06:00 +18°C° 0 mm 1 mps 623 mmHg 50%
    07:00 +20°C° 0 mm 1 mps 624 mmHg 43%
    08:00 +23°C° 0 mm 1 mps 625 mmHg 35%
    09:00 +25°C° 0 mm 1 mps 626 mmHg 31%
    10:00 +27°C° 0 mm 1 mps 626 mmHg 27%
    11:00 +28°C° 0 mm 2 mps 626 mmHg 22%
    12:00 +29°C° 0 mm 2 mps 626 mmHg 21%
    13:00 +29°C° 0 mm 2 mps 626 mmHg 20%
    14:00 +30°C° 0 mm 2 mps 625 mmHg 18%
    15:00 +29°C° 0 mm 2 mps 625 mmHg 21%
    16:00 +28°C° 0 mm 2 mps 624 mmHg 23%
    17:00 +27°C° 0 mm 2 mps 624 mmHg 26%
    18:00 +24°C° 0 mm 2 mps 623 mmHg 32%
    19:00 +20°C° 0 mm 2 mps 623 mmHg 38%
    20:00 +17°C° 0 mm 2 mps 622 mmHg 45%
    21:00 +17°C° 0 mm 2 mps 622 mmHg 46%
    22:00 +16°C° 0 mm 2 mps 622 mmHg 47%
    23:00 +16°C° 0 mm 2 mps 622 mmHg 48%

    Tomorrow, 23 September, Saturday

    Time Temperature Precipitation Wind Pressure Humidity
    00:00 +15°C° 0 mm 1 mps 622 mmHg 49%
    01:00 +15°C° 0 mm 1 mps 622 mmHg 49%
    02:00 +15°C° 0 mm 1 mps 622 mmHg 50%
    03:00 +14°C° 0 mm 1 mps 622 mmHg 51%
    04:00 +14°C° 0 mm 1 mps 622 mmHg 52%
    05:00 +14°C° 0 mm 1 mps 622 mmHg 53%
    06:00 +16°C° 0 mm 1 mps 623 mmHg 46%
    07:00 +20°C° 0 mm 1 mps 624 mmHg 39%
    08:00 +21°C° 0 mm 0 mps 626 mmHg 31%
    09:00 +25°C° 0 mm 1 mps 626 mmHg 28%
    10:00 +26°C° 0 mm 1 mps 626 mmHg 24%
    11:00 +28°C° 0 mm 2 mps 627 mmHg 20%
    12:00 +29°C° 0 mm 2 mps 626 mmHg 19%
    13:00 +29°C° 0 mm 2 mps 626 mmHg 18%
    14:00 +30°C° 0 mm 3 mps 626 mmHg 17%
    15:00 +29°C° 0 mm 3 mps 625 mmHg 20%
    16:00 +27°C° 0 mm 2 mps 625 mmHg 24%
    17:00 +26°C° 0 mm 2 mps 625 mmHg 27%
    18:00 +23°C° 0 mm 2 mps 624 mmHg 35%
    19:00 +19°C° 0 mm 2 mps 624 mmHg 43%
    20:00 +18°C° 0 mm 1 mps 623 mmHg 51%
    21:00 +16°C° 0 mm 1 mps 623 mmHg 52%
    22:00 +16°C° 0 mm 1 mps 623 mmHg 53%
    23:00 +15°C° 0 mm 1 mps 623 mmHg 55%

    Day after tomorrow, 24 September, Sunday

    Time Temperature Precipitation Wind Pressure Humidity
    00:00 +15°C° 0 mm 1 mps 623 mmHg 55%
    01:00 +15°C° 0 mm 1 mps 623 mmHg 56%
    02:00 +14°C° 0 mm 1 mps 623 mmHg 56%
    03:00 +14°C° 0 mm 1 mps 623 mmHg 57%
    04:00 +14°C° 0 mm 1 mps 623 mmHg 57%
    05:00 +13°C° 0 mm 1 mps 623 mmHg 57%
    06:00 +16°C° 0 mm 1 mps 624 mmHg 51%
    07:00 +20°C° 0 mm 1 mps 625 mmHg 44%
    08:00 +20°C° 0 mm 0 mps 626 mmHg 37%
    09:00 +24°C° 0 mm 1 mps 626 mmHg 33%
    10:00 +26°C° 0 mm 1 mps 627 mmHg 28%
    11:00 +28°C° 0 mm 2 mps 627 mmHg 24%
    12:00 +28°C° 0 mm 2 mps 627 mmHg 23%
    13:00 +29°C° 0 mm 2 mps 626 mmHg 22%
    14:00 +29°C° 0 mm 2 mps 626 mmHg 21%
    15:00 +28°C° 0 mm 2 mps 625 mmHg 24%
    16:00 +27°C° 0 mm 2 mps 625 mmHg 26%
    17:00 +26°C° 0 mm 2 mps 624 mmHg 29%
    18:00 +23°C° 0 mm 2 mps 624 mmHg 36%
    19:00 +19°C° 0 mm 2 mps 624 mmHg 42%
    20:00 +18°C° 0 mm 1 mps 623 mmHg 49%
    21:00 +16°C° 0 mm 1 mps 623 mmHg 51%
    22:00 +16°C° 0 mm 1 mps 623 mmHg 53%
    23:00 +15°C° 0 mm 1 mps 623 mmHg 55%

    25 September, Monday

    Time Temperature Precipitation Wind Pressure Humidity
    00:00 +15°C° 0 mm 1 mps 623 mmHg 54%
    01:00 +15°C° 0 mm 1 mps 622 mmHg 53%
    02:00 +14°C° 0 mm 1 mps 622 mmHg 53%
    03:00 +14°C° 0 mm 1 mps 622 mmHg 53%
    04:00 +14°C° 0 mm 1 mps 622 mmHg 54%
    05:00 +14°C° 0 mm 1 mps 622 mmHg 54%
    06:00 +16°C° 0 mm 1 mps 623 mmHg 48%
    07:00 +20°C° 0 mm 1 mps 624 mmHg 41%
    08:00 +22°C° 0 mm 1 mps 625 mmHg 35%
    09:00 +24°C° 0 mm 1 mps 625 mmHg 31%
    10:00 +26°C° 0 mm 1 mps 626 mmHg 27%
    11:00 +28°C° 0 mm 2 mps 626 mmHg 22%
    12:00 +28°C° 0 mm 2 mps 626 mmHg 21%
    13:00 +29°C° 0 mm 2 mps 625 mmHg 20%
    14:00 +29°C° 0 mm 3 mps 625 mmHg 18%
    15:00 +28°C° 0 mm 2 mps 625 mmHg 21%
    16:00 +27°C° 0 mm 2 mps 624 mmHg 23%
    17:00 +26°C° 0 mm 2 mps 624 mmHg 26%
    18:00 +23°C° 0 mm 2 mps 623 mmHg 31%
    19:00 +19°C° 0 mm 2 mps 623 mmHg 37%
    20:00 +18°C° 0 mm 1 mps 623 mmHg 43%
    21:00 +16°C° 0 mm 1 mps 622 mmHg 44%
    22:00 +16°C° 0 mm 1 mps 622 mmHg 45%
    23:00 +15°C° 0 mm 1 mps 622 mmHg 46%

    26 September, Tuesday

    Time Temperature Precipitation Wind Pressure Humidity
    00:00 +15°C° 0 mm 1 mps 622 mmHg 46%
    01:00 +15°C° 0 mm 1 mps 622 mmHg 47%
    02:00 +14°C° 0 mm 1 mps 622 mmHg 48%
    03:00 +14°C° 0 mm 1 mps 622 mmHg 49%
    04:00 +14°C° 0 mm 2 mps 622 mmHg 50%
    05:00 +14°C° 0 mm 2 mps 622 mmHg 51%
    06:00 +16°C° 0 mm 1 mps 623 mmHg 45%
    07:00 +20°C° 0 mm 1 mps 624 mmHg 38%
    08:00 +22°C° 0 mm 1 mps 625 mmHg 31%
    09:00 +24°C° 0 mm 1 mps 626 mmHg 27%
    10:00 +26°C° 0 mm 1 mps 626 mmHg 23%
    11:00 +28°C° 0 mm 2 mps 627 mmHg 19%
    12:00 +29°C° 0 mm 2 mps 627 mmHg 18%
    13:00 +29°C° 0 mm 2 mps 626 mmHg 17%
    14:00 +29°C° 0 mm 2 mps 626 mmHg 16%
    15:00 +28°C° 0 mm 2 mps 626 mmHg 18%
    16:00 +27°C° 0 mm 2 mps 625 mmHg 20%
    17:00 +26°C° 0 mm 2 mps 625 mmHg 23%
    18:00 +23°C° 0 mm 2 mps 625 mmHg 27%
    19:00 +19°C° 0 mm 2 mps 624 mmHg 31%
    20:00 +17°C° 0 mm 2 mps 624 mmHg 35%
    21:00 +16°C° 0 mm 2 mps 624 mmHg 36%
    22:00 +16°C° 0 mm 2 mps 624 mmHg 37%
    23:00 +15°C° 0 mm 2 mps 624 mmHg 38%

    27 September, Wednesday

    Time Temperature Precipitation Wind Pressure Humidity
    00:00 +15°C° 0 mm 2 mps 623 mmHg 38%
    01:00 +14°C° 0 mm 2 mps 623 mmHg 39%
    02:00 +14°C° 0 mm 2 mps 623 mmHg 39%
    03:00 +14°C° 0 mm 2 mps 623 mmHg 40%
    04:00 +14°C° 0 mm 2 mps 623 mmHg 41%
    05:00 +13°C° 0 mm 2 mps 623 mmHg 42%
    06:00 +16°C° 0 mm 1 mps 624 mmHg 36%
    07:00 +20°C° 0 mm 1 mps 625 mmHg 30%
    08:00 +21°C° 0 mm 0 mps 626 mmHg 24%
    09:00 +25°C° 0 mm 1 mps 627 mmHg 21%
    10:00 +27°C° 0 mm 1 mps 627 mmHg 18%
    11:00 +29°C° 0 mm 2 mps 628 mmHg 15%
    12:00 +29°C° 0 mm 2 mps 627 mmHg 14%
    13:00 +30°C° 0 mm 2 mps 627 mmHg 14%
    14:00 +30°C° 0 mm 2 mps 626 mmHg 13%
    15:00 +29°C° 0 mm 2 mps 626 mmHg 16%
    16:00 +28°C° 0 mm 2 mps 625 mmHg 18%
    17:00 +26°C° 0 mm 2 mps 625 mmHg 21%
    18:00 +24°C° 0 mm 2 mps 624 mmHg 24%
    19:00 +20°C° 0 mm 2 mps 624 mmHg 28%
    20:00 +17°C° 0 mm 2 mps 624 mmHg 31%
    21:00 +16°C° 0 mm 2 mps 623 mmHg 32%
    22:00 +16°C° 0 mm 2 mps 623 mmHg 32%
    23:00 +15°C° 0 mm 2 mps 623 mmHg 33%
    Show more